Location: Newark
(46.7000°N, 60.6000°W)
Time: 02:27:47
(UTC+00:00)

SR - Pass Details

Date: 28 October 2020
Orbit: 579 x 876 km, 66.7° (Epoch: 30 November)

Event Time Altitude Azimuth Distance (km) Brightness Sun altitude
Exits shadow 07:38:14 13° 12° (NNE) 1,797 ? -31.4°
Drops below altitude 10° 07:38:50 10° 17° (NNE) 1,993 ? -31.3°
Sets 07:41:26 0° 29° (NNE) 2,947 ? -30.9°
